Weather in Tuy Hòa

Vietnam     13°03′27″N   109°19′42″E
temp.,
°C
wind,
m/s
gust,
m/s
humid.,
%
clouds,
%
prec.,
mm/h
press.,
hPa
HPBL,
m
15 april, thu
thu1501:00+22sw119499 0.0 101122
04:00+22wsw119491 0.0 101126
07:00+24w0182100 0.0 1012183
10:00+30e226067 0.0 10121078
13:00+32e5454100 0.0 10081225
16:00+29ese556494 0.0 1007683
19:00+24se23894 0.0 1009122
22:00+23s11936 0.0 101264
16 april, fri
fri1601:00+22ssw119536 0.0 101035
04:00+22wsw119047 0.0 101027
07:00+25sse02777 0.0 1012375
10:00+31e32475 0.0 10121218
13:00+31e53495 0.0 10101166
16:00+29ese56535 0.0 1008750
19:00+23se238196 0.0 1011105
22:00+21wsw118731 0.0 101344
17 april, sat
sat1701:00+20wsw1189100 0.0 101223
04:00+20wsw1190100 0.0 101221
07:00+24w117520 0.0 1014190
10:00+30ene324568 0.0 10141206
13:00+31ene534398 0.0 10111254
16:00+29ene445099 0.0 1010794
19:00+23ene128291 0.0 101389
22:00+22sw018849 0.0 1015102
18 april, sun
sun1801:00+22w128968 0.0 101455
04:00+21w229258 0.0 101337
07:00+24w2278100 0.0 1014182
10:00+30nne335471 0.0 10141244
13:00+31ne54515 0.0 10101233
16:00+28ene45571 0.0 1009791
19:00+24ene237945 0.0 1011144
22:00+23n018927 0.0 101382
19 april, mon
mon1901:00+22w11935 0.1 101158
04:00+22w22945 0.0 101038
07:00+25wnw117940 0.0 1012241
10:00+31ne335022 0.0 10111354
13:00+31ene645387 0.0 10081070
16:00+29ene456210 0.0 1008935
19:00+24e229165 1.8 101071
22:00+23sw019384 3.1 101226